www.pogodaiklimat.ru
ПОГОДА в Бишопе
Время
и дата
11:56 19.07
12:56 19.07
13:56 19.07
14:56 19.07
15:56 19.07
16:36 19.07
16:56 19.07
17:19 19.07
17:56 19.07
18:56 19.07
19:30 19.07
19:56 19.07
20:56 19.07
21:56 19.07
22:56 19.07
23:56 19.07
00:56 20.07
01:56 20.07
02:56 20.07
03:56 20.07
04:56 20.07
05:56 20.07
06:56 20.07
07:56 20.07
08:56 20.07
09:56 20.07
10:56 20.07
11:56 20.07
12:56 20.07
13:56 20.07
14:56 20.07
15:56 20.07
16:56 20.07
17:56 20.07
18:56 20.07
19:56 20.07
20:56 20.07
21:56 20.07
22:56 20.07
23:56 20.07
00:56 21.07
01:56 21.07
02:56 21.07
03:56 21.07
04:56 21.07
05:56 21.07
06:56 21.07
07:56 21.07
Ветер
(напр.,м/с)
Видим. Явления Облачность Т
(С)
Тd
(С)
f
(%)
Тe
(С)
Тes
(С)
Комфортность P
(гПа)
Po
(гПа)
Тmin
(С)
Tmax
(С)
R
(мм)
R24
(мм)
S
(см)
Ю 6
{10}
16 км ясно +38.3 +7.2 15 +36 +44 очень
жарко
1013.0 876.2
Ю 6
{11}
16 км ясно +38.3 +6.7 15 +36 +44 очень
жарко
1012.3 875.6
Ю 4 16 км ясно +38.9 +5.6 13 +36 +49 очень
жарко
1011.5 875.1
Ю 5 16 км ясно +39.4 +6.7 14 +37 +45 очень
жарко
1010.8 874.5
нст 3 16 км ясно +38.9 +5.6 13 +36 +46 очень
жарко
1010.7 874.2 +34.4 +39.4
З 5 16 км ясно +37.8 +7.2 15 +35 +39 очень
жарко
874.2
СЗ 4 16 км 5/0 3600 m
[Ac]
+38.3 +6.7 15 +36 +39 очень
жарко
1011.4 874.5
СВ 12
{17}
16 км 8/0 3600 m
[Ac]
+33.9 +8.3 21 +32 +32 жарко 875.1
С 6
{13}
16 км ясно +33.9 +7.2 19 +32 +33 жарко 1012.7 875.3
З 2 16 км ясно +32.2 +6.7 20 +30 +31 жарко 1012.5 875.6
З 8
{11}
16 км ясно +31.7 +7.2 22 +30 +30 жарко 876.2
З 5 16 км ясно +30.6 +7.8 24 +30 +30 жарко 1013.7 876.8
СЗ 2 16 км ясно +28.9 +8.9 29 +29 +29 жарко 1014.3 877.4
С 3 16 км 5/0 3600 m
[Ac]
+26.7 +9.4 34 +27 +27 жарко 1014.3 877.4 +26.1 +38.9
З 2 16 км ясно +25.0 +10.6 40 +26 +26 жарко 1014.4 877.4
штиль 0 16 км ясно +22.2 +10.0 46 +24 +24 комфорт 1014.3 877.4
С 3 16 км ясно +20.6 +9.4 49 +22 +22 комфорт 1014.4 877.4
СЗ 3 16 км ясно +20.0 +9.4 50 +22 +22 комфорт 1014.1 877.1
СЗ 2 16 км ясно +19.4 +8.9 51 +21 +21 комфорт 1014.1 877.1
СЗ 4 16 км ясно +18.9 +8.3 50 +19 +19 1014.3 877.1 +18.9 +26.7
С 2 16 км ясно +16.7 +8.9 60 +17 +17 1014.8 877.4
СЗ 2 16 км ясно +21.7 +8.9 44 +23 +23 комфорт 1015.3 877.7
СЗ 3 16 км ясно +25.6 +10.0 37 +26 +27 жарко 1015.6 878.3
нст 2 16 км ясно +29.4 +10.0 30 +29 +34 жарко 1015.2 878.0
СЗ 2 16 км ясно +33.3 +10.6 25 +33 +41 жарко 1014.7 877.7
СВ 2 16 км ясно +34.4 +7.8 19 +33 +45 жарко 1014.1 877.1 +16.1 +35.0
Ю 2 16 км ясно +36.1 +8.3 18 +34 +51 опасность
солнечного
удара
1013.3 876.5
ЮВ 6
{11}
16 км ясно +38.3 +7.2 15 +36 +44 очень
жарко
1012.6 875.9
ЮВ 6
{11}
16 км ясно +40.0 +6.1 13 +37 +45 очень
жарко
1011.6 875.1
Ю 7
{9}
16 км ясно +40.0 +6.1 13 +37 +43 очень
жарко
1010.8 874.2
Ю 5
{9}
16 км ясно +40.0 +5.6 12 +37 +46 очень
жарко
1010.2 873.9
З 6
{9}
16 км ясно +36.7 +5.6 15 +34 +39 очень
жарко
1010.5 873.6 +33.9 +40.6
нст 2 13 км ясно +34.4 +7.2 19 +33 +40 жарко 1011.3 873.9
С 3 16 км ясно +34.4 +7.8 19 +33 +35 жарко 1010.9 874.2
З 4 16 км ясно +32.2 +8.3 23 +31 +32 жарко 1010.9 874.2
З 3 16 км ясно +30.0 +8.3 26 +29 +29 жарко 1011.5 875.1
СЗ 6 16 км ясно +30.6 +8.9 26 +30 +30 жарко 1012.2 875.9
С 5 16 км ясно +27.8 +9.4 32 +28 +28 жарко 1013.0 876.2 +27.8 +36.7
С 4 16 км ясно +27.2 +8.9 32 +27 +27 жарко 1013.1 876.5
СЗ 2 16 км ясно +23.9 +9.4 40 +25 +25 комфорт 1013.4 876.5
З 3 16 км ясно +23.3 +9.4 41 +25 +25 комфорт 1012.9 876.5
З 3 16 км ясно +23.3 +9.4 41 +25 +25 комфорт 1012.8 876.2
СЗ 4 16 км ясно +20.6 +8.9 47 +22 +22 комфорт 1012.8 876.2
штиль 0 16 км ясно +19.4 +9.4 52 +20 +20 1013.4 876.2 +19.4 +28.3
З 4 16 км ясно +20.0 +9.4 50 +21 +21 комфорт 1013.7 876.2
штиль 0 16 км ясно +20.6 +10.0 51 +22 +22 комфорт 1013.9 876.5
С 3 16 км ясно +25.0 +10.6 40 +26 +27 жарко 1013.7 876.5
СЗ 2 16 км ясно +29.4 +11.7 34 +30 +34 жарко 1013.1 876.2
Местоположение метеостанции Bishop Airport: широта 37.3711 долгота -118.3581 высота над уровнем моря 1256 м.
В архиве по умолчанию представлена погода в Бишопе за последние 1-2 суток. Обновление информации о фактической погоде в базе происходит ежечасно! Архивные данные за месяц целиком и за предыдущие месяцы Вы можете получить, выбрав интересующий диапазон дат из раскрывающегося списка и нажав кнопку "Ввод!".
Внимание! Архив погоды МЕТАР в базе сайта по станциям, не включенным в климатический монитор, хранится не более 60 дней. Нет смысла пытаться выбрать более раннюю дату.
*Определитесь, кто Вы:
Внимание! Время в таблицах - местное (без учета летнего времени). Для получения всемирного времени необходимо вычесть поправку, которая равна -8 ч.
Смотрите также архив погоды в соседних городах и на ближайших метеорологических станциях:
Партнеры нашего сайта:      
Пояснения к столбцам:
  • Ветер - указаны скорость ветра в м/с - средняя за 10 мин, порывы в срок и между сроками (в фигурных скобках) и направление, откуда дует ветер: С - северный,
  • СВ - северо-восточный, В - восточный, ЮВ - юго-восточный, Ю - южный, ЮЗ - юго-западный, З - западный, СЗ - северо-западный.
  • Видимость - горизонтальная дальность видимости в метрах или километрах. При видимости от 1 до 10 км при отсутствии осадков обычно наблюдается дымка, при ухудшении видимости до 1 км и менее - туман. В сухую погоду видимость может ухудшаться дымом, пылью или мглою.
  • Явления - указаны атмосферные явления, наблюдавшиеся в срок или в последний час перед сроком; фигурными скобками обозначены явления, наблюдавшиеся между сроками (за 1-3 часа до срока); квадратными скобками обозначены град или гололедные отложения с указанием их диаметра в мм.
  • Облачность - указаны через наклонную черту общая и нижняя облачность в баллах и высота нижней границы облаков в метрах; квадратными скобками обозначены формы облаков: Ci - перистые, Cs - перисто-слоистые, Cc - перисто-кучевые, Ac - высококучевые, As - высокослоистые, Sc - слоисто-кучевые, Ns - слоисто-дождевые, Cu - кучевые, Cb - кучево-дождевые. Подробнее классификацию облаков см. в Атласе облаков (PDF).
  • T - Температура воздуха - температура, измеренная на высоте 2 м над землей.
  • Td - Температура точки росы - температура, при понижении до которой содержащийся в воздухе водяной пар достигнет насыщения.
  • f - Относительная влажность воздуха - влажноcть воздуха, измеренная на высоте 2 м над землей.
  • Te - Эффективная температура - температура, которую ощущает одетый по сезону человек в тени. Характеристика душности погоды. При расчете учитывается влияние влажности воздуха и скорости ветра на теплоощущения человека.
  • Tes - Эффективная температура на солнце - температура, которую ощущает человек, с поправкой на солнечный нагрев. Характеристика знойности погоды. Зависит от высоты солнца над горизонтом, облачности и скорости ветра. Ночью, в пасмурную погоду, а также при ветре 12 м/с и более поправка равна нулю.
  • P - Атмосферное давление - приведенное к уровню моря атмосферное давление.
  • Po - Атмосферное давление - измеренное на уровне метеостанции атмосферное давление.
  • Tmin - Минимальная температура - минимум температуры воздуха на высоте 2 м над землей.
  • Tmax - Максимальная температура - максимум температуры воздуха на высоте 2 м над землей.
  • R - Количество осадков - Количество выпавших осадков за период времени, мм. При наведении курсора мыши на число - период времени, за который выпало указанное количество осадков.
  • R24 - Количество осадков - Количество выпавших осадков за 24 часа, мм.
  • S - Снежный покров - Высота снежного покрова, см. При наведении курсора мыши на число - состояние снежного покрова и степень покрытия местности в баллах.